Weather History for PAHO - March, 2012

Change the Weather History Date:

Sunday, March 4, 2012

  Actual Average Record
Temperature  
Mean Temperature 16 °F -  
Max Temperature 19 °F 33 °F 80 °F (1998)
Min Temperature 14 °F 20 °F -15 °F (1956)
Degree Days  
Heating Degree Days 48    
Moisture  
Dew Point 14 °F    
Average Humidity 87    
Maximum Humidity 95    
Minimum Humidity 79    
Precipitation  
Precipitation 0.00 in - - ()
Sea Level Pressure  
Sea Level Pressure 29.96 in    
Wind  
Wind Speed 6 mph (NW)    
Max Wind Speed 13 mph    
Max Gust Speed -    
Visibility 7 miles    
Events Snow    
Averages and records for this station are not official NWS values.
T = Trace of Precipitation, MM = Missing Value Source: NWS Daily Summary

Daily Weather History Graph

Daily Weather History Graph

Search for Another Location

Airport or City:

Trip Planner

Search our weather history database for the weather conditions in past years. The results will help you decide how hot, cold, wet, or windy it might be!

Date:

Astronomy

Mar. 04, 2012 Rise Set
Actual Time 7:52 AM AKST 6:43 PM AKST
Civil Twilight 7:11 AM AKST 7:24 PM AKST
Nautical Twilight 6:24 AM AKST 8:12 PM AKST
Astronomical Twilight 5:35 AM AKST 9:01 PM AKST
Moon 2:19 PM AKST (3/4) 6:10 AM AKST (3/4)
Length of Visible Light 12h 12m
Length of Day
10h 50m
Waxing Gibbous, 85% of the Moon is Illuminated
Mar 4
Waxing Gibbous
Mar 8
Full
Mar 14
Last Quarter
Mar 22
New
Mar 30
First Quarter

Hourly Weather History & Observations

Time (AKST) Temp. Windchill Dew Point Humidity Pressure Visibility Wind Dir Wind Speed Gust Speed Precip Events Conditions
12:53 AM 16.0 °F 8.8 °F 12.0 °F 84% 29.75 in 10.0 mi North 4.6 mph - 0.00 in   Overcast
1:09 AM 15.8 °F 2.1 °F 14.0 °F 93% 29.75 in 2.0 mi NNE 12.7 mph - 0.00 in Snow Light Snow
1:18 AM 15.8 °F 2.7 °F 12.2 °F 86% 29.75 in 1.8 mi NNE 11.5 mph - 0.00 in Snow Light Snow
1:34 AM 15.8 °F 4.2 °F 12.2 °F 86% 29.76 in 2.5 mi NNE 9.2 mph - 0.00 in Snow Light Snow
1:51 AM 14.0 °F 5.1 °F 12.2 °F 93% 29.77 in 4.0 mi NNE 5.8 mph - 0.00 in Snow Light Snow
1:53 AM 14.0 °F 5.1 °F 12.9 °F 95% 29.78 in 4.0 mi NNE 5.8 mph - 0.00 in Snow Light Snow
3:53 AM 15.1 °F - 10.9 °F 84% 29.81 in 10.0 mi Calm Calm - N/A   Overcast
4:18 AM 17.6 °F - 12.2 °F 79% 29.81 in 9.0 mi Calm Calm - 0.00 in Snow Light Snow
4:53 AM 16.0 °F 10.4 °F 12.0 °F 84% 29.83 in 10.0 mi East 3.5 mph - 0.00 in   Overcast
5:53 AM 18.0 °F - 12.9 °F 81% 29.86 in 10.0 mi Calm Calm - 0.00 in Snow Light Snow
6:53 AM 16.0 °F 10.4 °F 14.0 °F 92% 29.88 in 10.0 mi East 3.5 mph - 0.00 in Snow Light Snow
7:27 AM 15.8 °F - 12.2 °F 86% 29.89 in 10.0 mi Calm Calm - 0.00 in   Overcast
7:53 AM 16.0 °F - 12.9 °F 88% 29.91 in 10.0 mi Calm Calm - 0.00 in   Overcast
8:53 AM 17.1 °F 11.7 °F 14.0 °F 88% 29.93 in 10.0 mi NNE 3.5 mph - 0.00 in Snow Light Snow
9:53 AM 18.0 °F 12.7 °F 14.0 °F 84% 29.96 in 10.0 mi NE 3.5 mph - 0.00 in Snow Light Snow
10:53 AM 19.0 °F 13.9 °F 15.1 °F 85% 29.99 in 5.0 mi NNE 3.5 mph - 0.00 in Snow Light Snow
11:53 AM 18.0 °F 4.8 °F 16.0 °F 92% 30.01 in 3.0 mi WSW 12.7 mph - 0.00 in Snow Light Snow
12:53 PM 18.0 °F 6.1 °F 15.1 °F 88% 30.02 in 4.0 mi WSW 10.4 mph - 0.00 in Snow Light Snow
1:53 PM 19.0 °F 9.0 °F 16.0 °F 88% 30.03 in 7.0 mi West 8.1 mph - 0.00 in   Overcast
2:09 PM 19.4 °F 11.5 °F 15.8 °F 86% 30.03 in 7.0 mi West 5.8 mph - N/A   Overcast
2:36 PM 19.4 °F 10.4 °F 15.8 °F 86% 30.03 in 6.0 mi West 6.9 mph - 0.00 in Snow Light Snow
2:53 PM 19.0 °F 10.0 °F 15.1 °F 85% 30.04 in 4.0 mi West 6.9 mph - 0.00 in Snow Light Snow
3:07 PM 19.4 °F 11.5 °F 15.8 °F 86% 30.04 in 5.0 mi West 5.8 mph - 0.00 in Snow Light Snow
3:14 PM 19.4 °F 9.5 °F 15.8 °F 86% 30.04 in 4.0 mi WSW 8.1 mph - 0.00 in Snow Light Snow
3:49 PM 17.6 °F 6.4 °F 15.8 °F 93% 30.05 in 7.0 mi WSW 9.2 mph - 0.00 in   Overcast
3:53 PM 18.0 °F 6.9 °F 15.1 °F 88% 30.06 in 7.0 mi WSW 9.2 mph - 0.00 in   Overcast
4:40 PM 17.6 °F 8.2 °F 14.0 °F 86% 30.05 in 8.0 mi WSW 6.9 mph - N/A   Overcast
4:53 PM 18.0 °F 9.8 °F 15.1 °F 88% 30.05 in 9.0 mi WSW 5.8 mph - N/A   Overcast
5:53 PM 18.0 °F 9.8 °F 15.1 °F 88% 30.06 in 10.0 mi West 5.8 mph - N/A   Overcast
6:53 PM 18.0 °F 12.7 °F 14.0 °F 84% 30.07 in 7.0 mi West 3.5 mph - N/A   Overcast
7:53 PM 18.0 °F - 15.1 °F 88% 30.08 in 10.0 mi Calm Calm - N/A   Overcast
8:53 PM 18.0 °F - 15.1 °F 88% 30.10 in 10.0 mi Calm Calm - N/A   Overcast
9:53 PM 19.0 °F - 14.0 °F 81% 30.08 in 10.0 mi Calm Calm - N/A   Overcast
10:53 PM 19.0 °F 12.3 °F 15.1 °F 85% 30.10 in 10.0 mi North 4.6 mph - N/A   Overcast
11:53 PM 19.0 °F - 15.1 °F 85% 30.11 in 10.0 mi Calm Calm - N/A   Overcast